Theta_e
296 296 297 297 298 298 298 298 298 298 297 297 297 298 298 297 296 296 297 298 298 298 298 297 298 300 299 300 303 303 310 311 313 316 315 314 310 314 314 315 316 317 317 315 313 313 316 313 317 316 315 316 318 317
297 297 297 297 298 298 299 300 299 299 298 298 298 298 298 298 297 297 297 298 298 298 298 298 298 299 298 301 303 302 304 311 313 314 311 309 307 306 314 317 314 317 317 316 316 315 313 315 315 316 317 316 314 312
297 297 297 297 297 297 298 299 299 299 299 298 298 298 298 298 298 298 298 298 297 298 298 298 300 298 298 300 301 303 305 306 313 314 308 307 310 308 315 316 316 314 314 316 315 316 312 311 312 314 315 313 312 311
297 297 296 296 296 296 296 297 297 297 298 298 298 298 298 298 298 298 298 298 298 298 299 299 298 298 300 301 302 301 301 303 309 312 305 305 308 305 310 311 314 313 314 315 315 312 310 311 311 311 311 311 311 310
297 296 296 296 296 297 299 300 300 300 300 299 299 299 299 298 298 298 298 298 298 299 299 299 300 301 301 300 300 300 304 304 309 306 305 307 302 305 304 305 307 310 313 316 317 312 315 312 311 311 311 311 311 311
298 296 296 296 297 299 300 301 300 300 299 299 299 298 299 299 298 297 297 297 299 299 300 301 299 302 303 303 303 303 304 307 311 308 302 302 304 307 310 311 308 310 312 314 311 313 314 313 313 311 309 306 307 307
297 298 297 297 298 299 300 300 300 300 299 299 299 299 304 303 298 297 298 298 299 300 300 300 298 301 301 304 304 305 306 307 308 302 301 302 304 306 305 312 307 309 311 313 313 311 309 308 307 305 305 304 305 305
297 298 298 298 298 299 300 300 299 300 299 299 299 299 299 299 297 299 300 299 299 300 300 300 300 300 301 300 300 301 301 301 300 299 300 302 302 302 308 305 306 309 309 309 309 307 307 307 304 304 304 305 305 305
296 297 298 298 298 299 299 299 299 300 299 300 300 300 301 300 298 300 300 299 299 301 300 300 303 304 300 299 299 300 300 300 299 301 301 303 302 306 305 303 304 306 306 306 307 306 304 303 303 304 304 304 304 302
297 297 298 298 298 298 298 298 298 299 300 300 301 300 299 298 298 300 300 301 301 301 300 297 299 302 300 299 300 300 300 301 302 301 300 302 303 302 302 303 304 304 304 303 303 302 303 302 303 302 302 301 301 300
297 297 298 298 298 299 299 299 299 299 299 299 300 299 299 299 299 299 298 299 298 300 299 299 300 301 299 300 299 299 300 299 302 302 302 302 303 301 301 302 304 303 304 303 303 303 302 302 300 299 298 297 297 297
296 296 296 298 298 299 299 299 298 299 298 300 299 299 299 299 299 299 300 300 301 302 299 300 300 300 299 300 300 298 300 300 304 298 300 301 300 301 301 301 301 302 302 301 301 300 299 298 297 297 296 295 295 293
296 297 297 298 298 298 299 299 299 299 300 300 299 299 298 297 299 302 301 302 302 300 299 300 300 301 301 301 298 299 298 297 296 292 298 300 300 299 300 300 300 300 300 299 298 296 296 295 295 294 293 293 292 293
296 297 297 298 298 298 299 300 299 300 300 300 297 297 298 301 301 301 301 300 298 300 300 300 297 298 298 298 297 299 299 298 296 293 300 296 298 297 298 299 299 297 296 296 295 294 294 293 293 292 292 291 293 292
296 296 297 298 297 297 298 299 299 299 300 299 298 298 299 297 298 298 298 298 299 300 300 298 298 298 297 298 298 299 298 299 299 299 296 297 297 297 298 297 296 295 294 293 293 293 293 293 292 291 290 292 291 290
295 296 296 297 297 297 298 299 298 298 299 300 298 295 295 298 299 297 298 299 299 300 299 298 297 298 299 298 299 299 301 299 298 295 296 297 296 297 297 296 295 294 293 293 293 292 292 291 291 291 290 289 288 287
294 296 296 296 297 296 297 297 298 298 300 299 293 297 295 296 296 298 299 300 300 300 295 296 297 299 296 299 300 298 297 296 293 295 297 299 299 298 297 295 295 294 293 292 291 291 291 291 291 289 288 286 287 286
290 295 296 296 297 297 297 297 298 297 297 297 293 297 296 297 298 298 300 301 301 300 299 298 297 299 294 300 296 294 295 294 296 298 299 299 299 298 296 295 294 293 292 292 291 291 292 291 289 288 288 287 287 286
289 293 295 295 296 296 296 296 297 295 295 298 297 297 297 297 297 298 299 300 299 299 299 297 296 296 294 294 292 296 297 297 297 298 298 299 299 297 296 295 294 293 293 292 291 291 290 290 289 288 287 287 286 286
288 293 292 293 294 295 295 297 297 297 295 297 297 297 297 297 297 297 298 298 298 299 294 293 293 295 296 299 299 300 300 300 300 298 297 297 297 296 295 294 293 293 292 291 290 289 289 288 288 287 287 287 286 285
288 291 293 291 292 295 296 296 296 295 296 297 297 297 296 296 297 297 297 297 297 295 291 297 298 299 300 300 300 301 301 301 300 300 298 296 296 296 295 294 293 293 292 291 290 290 289 289 288 287 287 286 284 283
289 289 289 290 291 293 295 295 295 295 296 295 297 297 295 288 294 296 296 297 296 296 296 296 297 297 299 298 299 300 301 300 299 299 299 298 296 295 295 294 293 293 292 291 291 290 289 288 288 287 286 284 282 280
289 290 290 292 293 292 292 294 294 294 294 295 295 295 292 292 295 295 290 294 296 296 296 296 295 295 297 299 298 298 299 299 299 299 298 297 296 294 293 293 293 292 292 291 291 290 289 288 286 286 285 283 280 279
291 292 293 293 291 285 292 292 293 293 293 294 294 293 293 291 294 291 292 293 296 296 295 295 295 295 296 297 298 298 298 298 298 298 297 296 294 293 293 292 292 291 291 291 290 289 288 287 286 286 284 282 280 279
290 289 291 283 290 287 285 284 288 291 287 290 291 289 289 293 289 288 290 290 295 295 295 296 295 295 295 296 297 297 298 298 298 298 296 295 294 293 292 291 291 290 290 290 289 288 288 287 286 285 284 282 280 279
280 287 286 285 285 288 289 284 282 284 285 287 289 291 292 287 287 288 289 294 295 294 295 295 295 295 296 295 295 295 297 298 297 297 295 294 293 292 292 291 290 290 289 289 289 288 287 287 286 285 283 281 279 279
280 279 289 289 290 292 288 288 290 286 284 285 287 283 283 286 284 286 294 295 295 295 294 295 296 295 296 296 295 295 297 298 298 296 295 293 293 292 292 291 291 290 289 289 289 288 287 287 286 284 282 280 279 278
285 288 285 289 290 291 283 282 283 285 286 290 288 285 286 285 286 292 293 294 294 293 291 291 293 297 296 296 295 296 297 297 297 295 294 293 292 292 291 291 290 290 290 290 289 288 287 287 286 284 282 280 278 277
287 289 290 283 286 288 286 286 286 290 292 292 285 284 284 291 291 291 292 292 290 290 290 291 292 296 297 296 296 296 297 297 296 294 293 293 292 292 291 291 291 290 290 289 289 288 286 285 284 282 280 279 278 277
287 289 285 279 282 286 289 291 291 292 293 292 293 292 290 290 290 290 290 290 290 290 290 291 294 295 296 296 296 296 296 296 296 295 294 293 293 292 291 291 291 290 290 289 288 286 285 283 281 279 278 278 277 277
287 288 287 285 282 288 289 291 292 293 293 293 293 293 291 289 289 289 290 289 290 289 289 289 291 292 294 295 296 297 297 296 295 295 295 295 294 293 292 292 291 291 290 289 287 286 284 281 280 279 278 277 277 277
286 287 281 284 284 288 289 290 292 292 291 292 291 291 291 290 289 289 287 288 288 289 289 288 289 289 290 291 292 293 294 295 296 296 295 295 295 294 293 293 291 291 290 288 286 285 283 281 279 278 277 277 276 276
283 285 285 286 285 286 288 290 288 286 287 288 290 290 290 289 285 287 287 287 287 288 288 288 288 288 288 289 290 291 292 293 293 294 294 294 293 293 293 292 291 290 289 288 286 284 281 280 279 278 277 277 276 276
Wind_Speed
32 35 40 37 38 40 41 42 41 41 42 42 40 40 43 47 45 47 46 40 50 28 25 42 39 25 20 28 14 14 12 19 6 8 6 4 4 11 6 19 11 8 6 4 3 1 10 9 1 9 5 5 12 15
33 37 29 30 30 32 31 29 30 32 33 35 37 38 39 43 50 47 44 42 45 40 18 38 41 32 42 39 23 23 15 7 11 5 4 3 1 1 9 10 4 18 9 5 8 6 1 4 3 7 11 16 12 17
30 25 24 24 25 23 21 15 15 21 25 28 30 33 37 40 43 46 45 34 38 35 23 27 21 39 46 44 40 12 15 19 20 26 5 3 4 4 5 10 4 3 4 5 4 2 4 13 16 16 17 20 18 12
25 21 19 21 21 21 18 14 14 17 22 24 26 30 33 36 39 42 49 40 37 11 7 13 41 47 37 28 29 46 49 48 21 18 3 3 3 2 4 3 7 4 7 7 1 6 14 8 15 16 15 13 10 6
22 19 17 19 19 16 14 15 14 8 9 14 19 24 33 34 37 41 48 42 52 33 4 8 21 29 28 34 45 43 45 41 29 3 3 3 3 4 1 2 3 5 6 6 8 16 6 8 20 14 11 8 5 3
20 19 17 16 14 12 12 12 12 13 13 12 21 33 40 46 42 36 11 30 49 47 7 2 9 14 19 27 36 44 44 39 7 4 3 4 4 3 4 5 3 9 8 8 5 11 5 16 16 11 9 7 7 6
21 21 17 15 12 11 11 10 13 11 16 27 20 34 16 41 57 48 9 21 51 42 7 2 3 9 6 10 20 17 19 15 8 6 2 3 3 6 1 6 5 14 13 14 19 20 13 18 10 12 7 7 6 8
17 20 17 14 12 11 11 11 12 14 20 27 15 28 44 43 46 21 6 30 49 25 8 3 2 3 4 5 4 5 7 7 5 4 4 2 4 3 3 4 10 18 16 16 17 10 8 11 11 4 9 9 10 11
15 18 17 14 12 12 12 11 12 15 25 13 17 19 25 33 19 22 37 44 32 10 3 3 1 1 4 1 6 5 5 3 3 2 2 4 3 5 3 6 15 22 15 15 14 11 10 12 13 12 13 14 14 13
17 15 15 14 16 15 16 20 23 18 14 21 8 8 8 8 17 35 19 7 7 8 2 2 2 2 2 2 2 3 4 2 2 1 6 1 2 3 3 12 22 18 15 21 24 19 20 18 16 14 13 12 10 10
11 17 12 11 10 16 16 17 26 18 10 15 9 7 7 8 5 4 3 2 3 3 6 3 2 3 2 1 2 4 2 2 2 2 2 2 1 1 8 13 18 18 26 20 18 20 15 16 16 15 13 12 11 10
13 13 17 14 16 8 11 16 26 25 10 4 2 3 4 4 4 4 1 3 1 2 2 2 3 2 5 4 3 3 2 2 3 4 3 3 2 16 23 24 23 24 22 20 18 20 19 18 16 16 15 13 11 11
8 7 13 9 11 12 12 17 22 19 9 4 3 3 3 2 5 3 2 1 2 2 3 4 2 2 2 3 3 3 4 2 4 3 3 2 9 18 27 28 25 22 21 21 19 18 19 20 16 15 16 14 16 16
6 7 9 6 11 12 16 18 19 17 6 4 4 6 3 3 3 2 2 1 2 9 14 8 3 3 1 3 2 5 2 3 2 2 3 4 16 20 27 27 27 22 19 21 20 19 20 21 21 20 19 16 15 13
8 7 5 5 9 14 16 16 16 13 6 4 4 4 3 4 2 4 2 10 16 17 14 6 5 4 3 4 2 3 2 1 3 3 2 13 21 27 27 24 24 24 23 22 20 22 24 25 24 21 16 14 12 11
8 8 8 8 8 11 14 14 14 9 4 5 7 3 2 2 6 8 10 8 6 4 4 5 3 3 3 2 2 1 4 2 3 1 11 23 26 28 25 21 20 21 22 23 22 24 24 22 19 18 18 16 14 11
7 5 7 9 9 8 13 13 8 6 5 4 2 8 6 4 3 5 8 10 10 6 2 2 4 3 1 2 2 1 3 2 2 9 17 28 31 26 22 19 19 20 23 23 23 22 21 17 17 18 17 15 11 9
8 7 8 8 8 8 8 9 5 5 5 5 3 4 5 5 4 7 8 12 8 4 3 2 3 2 2 2 2 2 2 6 12 18 22 26 25 22 19 19 19 20 23 22 21 19 17 18 17 15 13 11 9 7
8 6 5 4 4 3 4 4 4 3 3 3 5 6 7 6 9 8 8 8 9 10 3 3 4 1 1 2 2 3 12 13 19 18 19 20 19 18 17 17 17 18 19 19 18 16 16 13 11 11 10 9 5 4
7 5 2 1 1 1 2 2 3 3 2 2 4 5 5 4 5 6 8 5 4 3 3 2 1 2 1 4 3 8 17 21 23 21 18 18 17 15 15 18 19 18 18 16 15 18 18 15 12 9 6 4 3 3
6 8 3 2 1 2 1 2 2 2 4 3 8 3 4 6 4 3 3 2 3 3 1 0 1 4 5 8 7 14 16 16 16 14 24 23 19 16 18 19 19 18 19 18 18 16 13 10 10 9 6 5 5 4
4 6 4 3 1 1 1 1 1 1 2 3 6 3 4 1 2 4 7 2 2 3 4 3 2 3 4 5 5 7 9 13 13 8 14 21 23 21 22 22 20 20 18 16 15 17 15 10 9 7 5 6 6 5
4 5 4 3 2 2 1 2 1 2 2 3 3 2 1 0 1 7 1 3 5 7 8 8 7 6 7 7 6 5 7 10 13 11 14 20 21 20 22 20 20 20 19 17 17 17 13 9 8 7 7 7 7 7
5 4 2 2 2 2 0 1 2 2 2 3 3 2 2 2 5 1 2 3 5 7 7 9 9 10 9 10 12 11 9 10 12 12 13 18 20 20 20 20 19 16 12 16 18 13 11 10 11 10 8 7 7 6
1 1 2 2 2 3 3 2 3 1 2 2 3 1 2 4 2 1 2 3 1 3 6 9 11 12 13 15 12 9 10 11 14 15 15 18 19 23 21 19 17 14 15 17 17 15 14 13 13 11 8 8 8 8
1 1 3 5 2 3 4 3 3 5 2 1 2 1 2 3 1 4 2 1 0 3 6 5 7 12 14 14 15 16 14 12 12 12 15 20 21 27 28 26 23 19 17 14 13 14 14 14 14 12 11 11 10 9
0 3 2 4 2 3 2 1 3 3 3 4 3 2 3 2 4 3 1 1 1 3 4 5 6 8 13 13 12 11 16 14 13 9 9 16 15 17 15 18 19 15 18 16 13 11 14 14 15 13 12 12 11 9
6 2 3 3 3 3 3 2 3 4 3 4 5 2 7 7 4 2 1 3 2 4 5 5 3 1 10 11 10 13 13 14 14 13 15 17 16 15 10 9 10 10 12 14 14 13 11 10 13 14 14 14 15 14
3 3 5 1 1 2 3 4 3 3 4 7 4 3 2 2 2 1 1 0 2 4 6 6 1 2 9 11 11 14 14 18 23 23 25 23 22 21 17 14 13 9 12 16 17 14 11 11 12 13 13 13 14 13
3 6 3 1 4 3 2 3 1 5 4 5 5 5 4 3 1 2 4 2 2 4 7 6 4 4 9 12 14 14 14 17 19 21 24 25 23 19 21 19 17 14 12 17 20 20 19 18 18 18 18 18 17 15
2 6 3 3 3 2 4 4 4 4 5 3 4 4 4 4 3 5 2 3 2 3 5 4 2 4 3 5 11 15 16 17 18 20 20 17 21 23 21 20 19 16 14 16 17 18 19 19 17 17 17 17 16 14
5 4 4 2 2 2 4 5 4 3 3 4 3 5 5 3 3 1 4 5 3 1 2 3 0 1 2 2 4 7 12 18 21 21 20 16 14 19 22 21 21 18 16 17 17 17 17 16 17 17 17 17 16 15
3 3 3 4 2 3 4 4 2 2 0 1 4 7 7 6 4 3 1 2 2 1 1 2 2 3 5 7 5 4 8 8 12 17 14 15 14 16 20 21 20 18 18 19 18 17 18 17 17 17 16 16 16 15
Wind_Direction
302 303 300 298 296 293 288 277 268 261 258 255 252 250 242 235 235 239 240 232 207 207 219 214 218 216 221 229 235 246 236 214 199 211 194 187 164 206 178 217 209 180 158 176 102 227 258 193 140 167 178 120 161 141
304 302 308 307 310 308 302 281 262 256 256 255 249 247 242 236 231 239 236 237 223 216 234 232 230 234 235 238 258 239 264 270 187 176 219 140 108 177 165 206 176 221 208 180 180 217 259 117 132 146 165 150 135 129
310 311 315 313 316 319 322 306 274 261 258 256 252 247 242 237 232 233 227 224 220 219 225 223 221 235 232 235 236 253 251 249 195 193 178 190 187 137 176 213 142 163 152 169 117 174 108 110 108 117 138 134 136 136
324 318 319 319 323 317 312 308 291 273 264 261 255 247 239 235 231 225 217 212 211 192 215 228 236 234 237 232 233 238 252 257 280 200 170 142 167 160 185 173 203 186 145 159 77 100 101 139 145 144 132 133 135 147
329 326 322 322 319 321 328 323 311 306 295 280 271 261 247 239 227 222 223 225 213 198 187 214 226 228 242 232 235 243 245 243 239 215 138 173 122 123 20 61 229 188 169 179 226 172 182 175 168 163 151 161 180 206
341 340 334 331 333 337 347 349 350 333 315 321 310 322 277 238 217 193 184 211 195 194 218 239 220 201 217 231 236 232 231 220 212 163 113 99 129 135 160 199 177 171 138 140 162 140 132 174 168 188 200 187 168 178
348 351 349 349 351 353 357 353 358 359 346 340 342 360 341 201 192 178 184 192 179 183 205 260 225 184 194 189 203 190 189 197 212 111 109 134 121 128 243 233 185 167 150 145 147 138 125 165 192 194 185 174 192 222
356 357 357 1 0 2 2 357 342 353 343 350 33 46 67 114 145 148 147 163 172 170 169 262 249 155 130 208 145 109 95 94 60 106 102 109 94 68 239 201 152 153 145 152 154 129 157 181 177 157 185 196 167 142
359 358 1 3 1 357 1 8 353 345 344 34 77 72 72 75 66 83 144 155 164 162 189 218 197 133 104 40 101 84 97 91 104 101 118 126 137 205 218 175 153 154 160 165 163 170 159 158 152 148 151 152 153 139
2 359 8 8 8 7 2 355 349 352 23 60 66 35 42 42 100 113 123 130 153 226 259 287 86 86 32 39 65 83 67 87 97 101 116 111 203 212 175 190 162 153 152 164 141 129 137 134 140 139 140 142 142 140
353 7 355 356 5 5 16 32 27 43 40 28 24 41 67 79 88 81 98 121 153 185 191 188 185 115 133 173 103 57 111 136 121 161 133 157 207 224 167 153 162 158 160 156 154 153 157 160 150 145 133 132 131 132
346 354 4 9 0 23 28 10 4 15 11 26 70 85 48 27 56 80 100 158 150 149 168 129 106 176 129 143 112 134 117 121 112 129 94 177 204 158 157 144 142 146 151 142 147 144 141 137 136 135 136 139 142 140
338 336 358 12 14 11 4 356 357 356 7 45 45 94 36 332 55 47 352 106 135 122 127 122 116 139 94 72 66 87 73 59 107 61 184 214 140 141 145 142 134 136 140 140 137 136 134 131 134 139 139 138 135 127
310 322 355 347 352 355 357 1 360 4 20 43 52 33 48 14 5 7 333 349 113 114 109 114 70 89 7 58 53 74 45 122 67 67 238 160 150 143 146 145 140 137 140 136 137 140 135 132 131 130 130 133 131 124
280 302 308 316 335 350 351 354 1 9 30 60 52 52 34 306 293 307 349 107 115 120 120 103 58 74 22 79 33 113 87 170 193 214 208 144 145 149 149 148 142 139 139 137 139 137 135 135 135 133 134 129 123 120
279 283 291 285 304 350 354 349 1 18 48 57 45 44 345 29 21 56 50 53 50 70 90 70 105 73 54 113 85 96 136 193 249 205 132 140 147 155 151 147 143 141 140 138 139 139 139 140 139 133 128 126 119 110
272 268 290 298 289 333 351 357 8 31 47 52 24 40 66 61 87 35 38 31 24 42 32 24 50 49 72 56 58 72 160 233 313 122 144 159 156 155 152 147 144 142 142 144 143 145 145 143 138 138 135 128 122 115
259 272 286 302 313 315 346 4 25 39 63 58 87 38 51 70 56 52 54 49 40 49 31 68 133 61 106 96 290 244 95 85 127 144 151 158 159 156 154 148 147 148 151 149 150 151 147 145 144 139 137 137 140 126
250 264 274 296 321 346 359 21 28 78 52 61 92 69 93 74 60 64 92 72 56 50 67 52 59 58 263 233 192 151 146 135 132 136 145 157 162 157 149 145 143 144 150 155 156 150 143 141 144 145 146 145 145 145
233 226 242 233 153 18 11 32 41 83 101 113 107 99 91 86 75 65 105 89 56 44 38 55 194 259 276 3 144 154 146 144 139 136 144 157 162 159 157 155 149 149 155 154 151 149 147 146 148 148 151 152 173 176
205 204 203 164 147 60 70 18 49 69 123 106 135 110 87 115 104 79 88 126 355 36 5 110 44 43 78 76 95 158 163 168 170 172 172 165 168 169 162 160 159 162 160 160 159 162 158 160 161 171 173 168 184 199
178 179 172 175 154 166 140 139 77 106 108 118 140 102 118 74 146 163 160 128 218 230 206 211 212 208 145 106 113 155 187 189 190 178 183 181 169 173 176 175 175 173 172 171 178 174 171 174 175 167 168 181 180 171
143 144 139 156 190 182 190 194 192 174 123 176 121 87 343 25 121 154 83 215 234 228 232 240 239 232 214 202 182 175 183 198 196 187 179 183 182 180 177 181 182 180 178 180 181 176 173 169 185 189 187 179 173 161
138 159 157 159 170 230 144 66 145 126 101 148 141 161 194 165 151 62 252 246 233 252 241 241 232 213 208 205 211 212 203 197 192 183 181 180 174 176 177 178 180 184 195 185 178 177 182 191 198 195 189 182 171 167
185 226 178 295 167 84 66 22 351 67 177 195 105 305 205 159 119 197 229 271 312 272 257 243 232 222 220 215 217 221 210 204 196 189 185 188 173 163 170 173 178 183 186 184 184 190 190 198 200 197 195 190 187 179
100 241 134 194 226 151 180 147 193 196 151 138 203 74 129 98 102 250 233 162 135 34 24 1 239 221 224 228 226 222 211 198 195 198 189 186 189 179 174 177 180 182 188 195 197 197 201 204 202 201 196 188 186 188
280 287 231 217 200 162 76 46 139 111 156 172 187 103 84 120 243 254 164 134 187 346 349 350 349 227 209 216 222 217 207 200 200 200 182 181 188 193 194 193 198 197 193 192 201 205 208 208 205 202 194 190 188 185
223 238 182 185 194 192 139 107 151 197 220 177 123 161 166 184 216 110 171 191 245 332 340 328 318 322 195 192 211 187 185 188 175 166 160 161 172 185 194 185 180 193 205 203 200 201 201 206 207 200 193 191 184 180
227 228 183 167 360 177 193 175 208 208 155 177 138 179 207 104 105 130 180 284 334 355 356 3 76 160 173 172 176 199 211 184 176 170 171 172 177 185 187 190 190 189 192 193 195 194 197 194 193 187 182 182 182 183
237 192 128 93 133 212 210 188 111 151 136 136 121 114 106 109 143 99 109 106 27 18 25 36 43 118 167 177 176 180 186 193 199 201 188 190 190 185 187 190 194 199 197 191 192 188 184 181 177 177 180 181 183 183
191 179 116 160 213 175 157 155 126 124 131 128 116 97 122 128 82 49 98 120 85 27 36 40 76 91 120 180 196 194 196 196 201 208 216 222 212 200 198 197 197 200 201 199 197 195 190 185 186 183 181 179 178 180
188 181 135 130 272 118 146 166 164 171 153 159 140 132 143 122 110 96 19 12 19 4 337 354 102 42 269 272 234 223 223 216 203 208 216 212 200 202 204 202 200 201 200 195 192 193 191 189 182 180 178 177 180 182
145 137 143 122 106 180 179 143 81 55 23 254 208 190 172 160 133 142 165 30 45 8 272 265 266 243 227 234 239 231 215 210 207 211 212 185 178 192 196 197 198 198 195 192 192 190 187 185 183 180 179 180 181 183